Location: Dal�� Lhota
(48.7500°N, 14.0167°E)
Time: 01:08:52
(UTC+00:00)

SL-08 RB Rocket - Pass Details

Date: 24 September 2020
Orbit: 647 x 684 km, 97.8° (Epoch: 29 October)

Event Time Altitude Azimuth Distance (km) Brightness Sun altitude
Exits shadow 17:49:40 - 140° (SE) 2,550 6.3 -9.5°
Reaches altitude 10° 17:50:51 10° 136° (SE) 2,090 5.8 -9.7°
Maximum altitude 17:55:04 38° 68° (ENE) 1,006 4.2 -10.4°
Drops below altitude 10° 17:59:17 10° 1° (N) 2,082 6.4 -11.1°
Sets 18:01:36 0° 353° (N) 2,993 7.3 -11.4°
